Wind_Speed
17 17 18 18 18 18 19 19 19 19 18 18 17 18 18 17 17 17 16 15 15 15 16 15 15 14 12 12 11 11 12 12 12 9 10 13 20 24 24 23 23 25 27 29 31 30 30 28 25 23 21 18 16 14 14 15 14 12 11 11 11 11 10 8 5 5 3 1 4 9 13 14 13 13 13 12 11 10 11 11 10 13 12 11 11 14 20 24
18 18 18 18 19 19 19 20 20 20 19 19 18 18 18 18 18 17 17 16 16 16 16 16 16 15 14 13 11 12 12 12 11 6 8 13 20 26 26 26 25 25 27 29 29 29 29 27 26 24 22 19 16 16 16 15 15 12 12 13 14 12 10 8 6 4 2 1 5 9 10 12 12 13 13 13 13 13 13 13 13 14 14 15 15 18 22 23
18 18 18 19 19 19 20 20 20 20 20 20 20 19 19 19 19 18 18 17 17 16 16 17 16 16 15 13 12 12 12 12 9 6 11 14 18 24 27 28 26 24 24 25 26 27 26 25 26 26 24 21 18 18 17 16 15 12 13 15 16 13 10 7 7 5 3 2 6 9 11 12 12 12 12 11 11 12 12 10 9 11 15 17 17 20 24 23
18 18 18 19 19 19 19 20 20 21 21 21 20 20 20 20 20 19 19 18 18 17 17 17 17 17 16 15 13 13 12 12 9 9 12 12 15 22 25 27 24 22 22 24 25 26 26 26 27 27 25 22 21 21 18 17 14 13 15 16 16 13 10 7 7 5 3 3 6 8 11 13 13 12 12 11 11 10 9 7 3 4 12 14 16 21 23 21
17 18 18 18 19 19 19 20 20 21 21 21 21 21 21 21 21 20 20 19 18 18 18 18 18 17 17 16 14 13 12 11 9 9 11 10 14 19 22 24 21 20 22 25 27 28 30 30 29 28 27 24 24 23 19 15 12 13 15 16 14 12 11 9 7 4 3 7 9 8 9 12 13 12 13 12 7 2 1 5 4 3 4 7 12 19 21 20
17 17 17 18 18 18 19 19 20 20 21 21 21 21 21 22 21 21 21 20 19 19 19 19 18 18 17 17 15 14 11 8 7 8 8 8 13 17 20 22 22 22 24 26 28 31 33 33 32 32 29 26 25 21 17 16 13 14 17 17 14 11 11 11 8 4 5 8 8 7 9 12 13 10 12 9 2 1 5 4 3 4 2 3 9 16 18 18
17 17 17 17 18 18 18 19 19 20 20 21 21 21 22 21 22 22 22 22 21 20 20 19 19 18 18 18 17 15 12 10 11 11 9 9 12 16 19 22 24 25 26 28 29 32 34 36 36 33 30 28 26 20 18 18 16 16 18 17 14 12 12 12 6 6 9 9 5 6 11 13 12 9 10 7 2 5 4 2 2 5 5 5 9 13 15 15
17 18 18 18 18 18 17 18 18 19 19 20 21 21 22 22 21 21 21 22 21 21 20 20 20 19 19 19 18 16 13 13 14 12 11 11 12 16 18 21 25 26 26 27 29 31 33 37 37 34 32 29 25 21 19 21 19 18 18 16 13 12 13 11 6 10 13 12 8 10 14 11 8 7 9 7 6 8 7 5 6 8 8 9 10 12 14 16
18 18 18 18 18 17 17 17 17 17 18 19 20 20 21 22 21 21 21 21 21 22 21 21 21 21 20 19 19 17 15 14 13 11 11 13 14 16 18 21 24 25 24 24 25 29 32 36 36 35 33 28 26 22 22 24 22 18 15 13 12 12 10 8 9 13 16 16 13 13 14 10 6 8 11 11 10 10 10 10 10 10 9 9 12 13 15 17
18 18 18 18 18 17 17 16 16 16 16 17 19 20 21 21 21 20 20 20 20 21 21 22 22 22 21 21 20 17 16 16 13 12 13 14 16 18 18 21 23 23 23 24 24 27 30 32 31 32 30 28 27 25 25 25 20 16 16 14 14 13 12 10 10 15 17 19 19 15 13 11 9 12 15 16 15 13 13 14 13 12 10 9 12 14 15 18
19 18 18 18 18 17 17 17 16 17 17 17 19 20 21 21 21 20 20 19 20 20 20 22 23 22 22 22 20 17 17 17 14 14 16 16 18 19 18 20 23 22 22 23 23 23 24 25 27 30 30 29 29 28 28 26 19 19 19 18 19 16 15 14 13 15 16 17 22 21 15 14 15 17 18 18 18 15 15 16 15 13 11 11 12 14 17 19
20 19 18 18 19 18 18 18 18 18 19 19 20 22 23 23 22 21 20 20 20 20 20 21 23 23 23 22 18 17 18 18 17 16 18 18 19 20 20 19 21 22 21 20 20 19 19 22 26 30 31 30 30 29 27 27 23 22 20 20 22 19 19 19 16 18 19 19 22 24 20 19 21 20 20 20 19 15 15 16 15 14 13 13 13 15 18 19
21 20 20 20 21 20 20 20 20 21 21 21 21 23 24 24 24 23 22 21 20 20 19 20 22 22 25 20 13 16 18 19 19 18 19 19 20 21 21 21 21 21 22 20 17 15 16 21 27 31 30 29 31 28 26 29 27 23 21 23 22 22 23 22 18 19 21 22 21 22 24 24 24 22 21 21 20 18 16 17 17 16 15 15 16 17 18 20
22 22 22 22 22 23 23 23 22 22 23 23 23 24 25 25 25 24 23 22 21 21 20 20 20 21 25 19 12 15 18 18 18 17 20 19 18 20 20 20 23 25 24 22 19 16 15 19 26 30 31 29 30 29 24 27 29 24 21 23 23 25 23 23 19 18 20 23 22 22 26 26 22 24 24 21 21 21 18 16 18 18 17 17 18 18 19 20
23 23 23 24 24 24 24 24 24 23 24 24 24 25 26 26 26 25 24 22 22 23 22 20 19 20 23 19 16 19 18 17 17 19 21 20 19 19 18 18 22 27 27 25 23 21 17 19 27 33 33 30 28 29 25 24 28 26 21 22 25 25 24 23 19 19 21 23 24 25 27 26 20 22 24 22 24 24 21 18 18 20 19 18 18 20 20 20
24 24 24 24 25 26 25 25 25 24 25 24 24 26 26 26 26 26 24 23 23 23 23 21 19 19 21 19 18 21 22 21 21 23 23 21 21 19 17 18 22 27 29 28 26 25 22 22 28 32 33 31 28 29 28 24 26 27 24 24 24 24 26 24 21 22 22 23 26 29 29 26 21 22 22 22 24 25 24 22 20 21 20 18 18 19 20 21
25 24 24 24 26 27 26 26 26 25 25 24 24 26 26 27 26 25 23 23 23 22 21 20 19 19 18 18 17 18 23 27 27 28 26 25 25 22 20 21 24 27 28 28 28 29 28 26 30 33 34 34 30 28 26 27 30 30 28 28 26 25 26 25 22 22 22 23 28 32 32 29 23 22 24 24 24 26 27 26 25 23 21 19 18 19 20 22
25 25 24 24 26 27 27 27 27 26 26 26 26 27 27 27 27 25 23 22 22 21 19 16 17 16 11 13 18 19 23 29 31 31 30 28 27 25 24 22 24 28 28 29 31 32 32 31 32 35 37 37 35 33 31 34 36 34 30 29 29 28 28 27 24 21 20 22 27 32 35 34 28 24 25 26 25 25 26 28 28 25 22 20 20 20 19 20
25 25 24 24 26 27 27 27 28 27 27 26 27 27 28 27 25 23 20 21 21 18 16 15 16 14 9 10 16 22 25 28 31 33 32 31 29 28 25 23 26 31 31 32 34 36 36 35 35 39 44 46 44 42 42 39 35 33 31 29 30 30 30 29 25 20 17 20 27 34 36 36 33 29 27 28 27 25 25 27 29 28 24 22 22 21 19 17
26 25 25 25 26 28 27 27 28 28 28 27 27 27 28 26 24 21 16 17 20 15 13 15 16 13 13 14 17 24 27 28 31 33 33 33 32 31 28 27 30 32 33 34 36 38 38 40 44 48 51 52 49 44 41 38 31 27 27 28 30 31 31 31 27 20 16 18 24 31 36 36 34 32 31 30 29 28 28 30 31 30 29 27 24 23 19 15
27 26 26 25 25 27 27 27 27 28 28 28 28 28 28 27 26 24 17 14 17 12 10 14 15 12 12 17 21 26 27 28 31 31 33 34 35 35 33 32 33 35 36 34 33 36 37 43 49 50 50 49 46 43 38 36 34 28 23 24 27 32 34 32 28 23 18 20 24 26 32 36 34 34 34 34 32 31 32 32 32 32 32 29 26 24 19 14
28 28 27 26 25 26 27 26 26 26 27 27 27 26 26 26 25 25 22 17 15 9 8 12 14 13 8 12 18 26 29 28 28 29 32 35 38 39 36 35 36 37 36 32 32 35 38 46 50 47 46 46 43 42 39 36 35 33 27 23 26 32 33 31 30 26 20 21 25 24 27 32 32 33 35 37 37 35 32 30 29 31 33 32 30 25 19 18
29 28 27 26 25 24 25 25 24 24 24 24 25 23 23 23 22 22 23 21 15 8 8 10 11 14 11 9 11 18 27 28 28 29 32 36 40 40 38 37 36 36 35 35 37 40 42 47 50 46 44 45 44 41 39 37 36 37 34 29 30 33 30 30 32 29 24 24 25 24 24 27 29 32 35 38 39 37 33 30 29 31 32 32 31 26 19 19
29 28 27 27 25 23 24 23 22 22 22 22 21 21 22 22 21 20 21 22 16 8 9 10 10 14 15 14 14 10 18 26 29 29 30 36 40 40 40 38 36 37 37 37 38 41 45 43 41 46 46 43 44 42 39 38 37 38 39 37 36 34 32 33 31 27 27 28 25 21 20 23 29 33 37 38 39 38 36 34 34 35 34 33 33 28 22 19
30 28 27 27 25 23 23 22 21 20 19 19 18 18 19 19 19 19 19 21 13 6 10 12 10 13 15 16 16 10 9 18 25 29 31 35 40 41 40 38 37 39 39 38 36 39 45 36 25 36 48 45 41 43 43 40 38 39 42 43 40 36 35 34 29 23 22 25 26 20 13 15 23 33 39 40 41 41 39 38 37 36 36 37 37 32 26 22
29 28 26 27 26 23 23 22 20 19 17 15 14 15 16 16 16 17 18 17 10 6 8 10 11 12 13 15 14 8 3 8 19 27 30 33 38 41 40 40 39 40 39 37 36 38 44 39 21 19 35 45 42 41 44 42 37 40 46 46 42 37 35 33 30 22 17 21 24 20 12 11 17 27 36 40 43 44 42 40 39 38 39 39 38 36 29 25
28 28 26 26 26 24 23 23 21 19 17 14 13 13 13 14 15 15 14 11 7 6 8 10 12 12 11 14 13 10 8 3 16 24 28 30 37 41 42 43 40 38 38 35 36 40 42 42 34 19 20 35 45 44 44 42 39 45 50 46 41 37 37 36 30 23 21 25 26 22 17 14 16 23 30 38 45 46 44 42 41 42 42 39 39 39 31 26
28 28 26 24 25 24 24 24 22 21 20 17 15 13 13 13 12 12 7 3 5 9 11 11 12 13 7 8 11 11 11 6 8 18 28 33 36 40 42 44 41 37 38 37 40 44 41 42 43 34 24 29 41 47 45 41 41 47 45 41 42 38 36 37 31 26 27 26 27 32 26 14 13 21 26 37 47 47 48 45 42 43 43 40 41 41 34 28
27 27 26 24 24 24 25 26 24 22 22 20 18 14 12 10 8 9 3 1 5 9 13 13 12 14 9 6 8 7 7 8 7 8 19 30 34 36 37 41 39 34 36 39 41 42 39 38 39 39 37 33 31 37 42 41 40 41 36 33 38 38 37 36 30 28 27 20 25 39 32 14 11 20 27 40 51 50 49 47 43 41 40 41 40 40 37 31
29 28 27 25 25 25 25 25 24 24 23 21 18 15 11 8 7 6 2 3 8 10 15 16 13 14 13 11 10 8 6 9 11 10 10 22 30 33 33 33 33 30 32 37 39 39 34 29 30 35 41 39 29 26 34 40 38 35 29 24 25 31 36 35 30 28 21 14 27 43 38 20 11 19 27 35 46 49 48 48 46 43 42 43 42 40 39 35
30 29 28 27 26 26 25 25 24 23 22 19 16 13 10 7 6 3 2 6 10 13 17 18 15 15 18 15 10 9 9 11 10 8 3 11 20 30 29 24 26 29 29 32 35 38 33 25 25 30 32 35 34 28 28 34 37 34 28 24 20 20 25 27 24 24 14 9 27 43 41 27 17 23 30 28 33 42 47 49 46 44 42 41 41 40 39 37
31 30 29 28 27 27 27 25 23 20 18 15 13 11 7 5 4 1 5 10 9 12 18 22 23 22 20 18 15 12 12 13 10 9 9 6 5 14 13 9 16 22 26 31 31 32 35 33 29 25 24 27 33 34 30 29 35 37 32 28 21 11 12 14 11 12 9 10 28 38 33 27 26 35 39 32 29 34 43 48 45 41 39 37 37 39 39 38
31 29 29 29 27 26 25 23 20 17 14 12 11 9 5 2 1 3 10 10 7 13 20 22 25 24 19 16 17 16 14 13 7 7 13 11 9 9 8 11 15 14 18 26 27 26 29 34 35 31 27 28 31 37 37 32 35 40 39 34 24 9 5 8 6 5 6 11 28 37 27 19 24 36 42 40 35 31 32 40 46 44 36 33 34 35 38 39
32 30 29 28 24 23 22 20 17 13 11 10 9 6 2 1 1 5 9 10 11 16 20 22 22 20 16 14 16 17 15 13 8 6 13 11 8 10 6 9 10 7 12 17 21 25 24 26 37 41 36 32 34 37 38 35 35 38 42 39 33 24 14 8 4 3 4 7 20 31 20 10 17 32 39 38 35 32 28 31 42 49 43 37 37 37 38 39
32 30 28 25 20 19 20 18 14 11 10 9 6 4 5 3 4 8 10 12 15 17 19 20 19 16 15 14 15 17 16 14 13 12 13 13 11 13 13 9 5 0 5 7 10 18 24 31 38 39 39 37 35 35 35 36 34 35 40 40 40 42 30 12 5 7 7 6 14 22 14 7 15 30 38 36 31 30 28 25 33 48 53 49 48 46 43 40
31 30 27 21 16 16 17 15 12 10 9 6 4 7 8 4 4 8 11 14 15 17 19 19 16 15 18 17 16 17 17 14 15 14 11 11 10 9 15 16 11 10 11 9 5 3 11 29 34 29 34 41 39 35 34 36 35 31 37 43 44 45 37 19 9 11 10 6 13 21 15 9 13 22 33 35 30 28 28 25 26 36 48 54 53 51 48 43
30 30 26 18 15 13 12 13 11 7 7 5 5 8 8 5 4 7 11 12 12 14 17 15 13 14 15 15 15 18 19 16 15 15 10 9 8 7 12 14 9 12 20 17 5 4 12 21 29 28 30 37 38 36 33 35 36 31 35 44 42 35 34 28 13 6 7 5 10 18 17 15 15 17 27 32 30 30 29 27 24 26 37 48 49 48 47 45
31 30 24 18 16 13 9 9 8 4 4 3 4 7 7 4 4 8 10 11 10 12 13 11 10 11 11 12 13 16 19 17 16 16 11 8 7 8 12 14 11 9 13 15 8 6 14 16 22 31 31 31 34 36 34 33 35 35 35 37 34 27 26 30 18 6 6 4 5 10 14 18 22 21 24 28 30 31 30 28 26 24 29 36 39 40 41 42
31 28 24 19 18 14 11 8 7 5 4 2 3 5 4 2 4 9 10 9 9 10 9 7 7 7 8 10 12 14 16 16 18 17 11 9 9 11 15 15 12 11 12 14 15 12 8 7 12 25 32 31 32 34 37 37 35 37 38 33 33 33 29 30 26 14 7 3 4 6 6 15 27 27 25 28 31 32 30 30 28 26 26 29 31 34 37 37
30 27 23 20 16 13 11 9 7 7 8 6 4 4 1 1 3 5 7 7 7 7 7 6 7 8 8 9 11 13 14 14 17 16 10 10 12 12 14 14 14 16 16 14 16 14 8 7 10 20 28 30 31 32 36 42 39 39 42 36 34 36 32 29 28 25 16 4 3 4 5 15 28 29 26 27 30 33 31 29 29 28 28 28 28 31 35 36
30 28 23 19 14 10 9 8 8 8 10 8 5 4 3 1 5 4 5 6 5 6 8 8 8 8 8 10 11 11 10 12 15 14 10 10 12 12 13 17 21 21 19 16 15 16 13 13 14 19 22 25 34 37 33 35 37 38 40 40 38 35 30 20 15 25 29 15 5 4 5 19 29 28 29 28 29 35 35 31 30 30 31 31 30 29 32 35
30 29 26 21 14 9 7 7 8 10 11 9 6 4 3 3 6 6 4 5 5 6 8 7 8 9 9 10 10 8 8 10 12 12 12 11 11 12 15 19 23 22 21 21 17 15 14 13 15 22 25 26 37 41 32 27 31 33 33 38 41 37 35 25 12 20 30 23 18 10 7 23 32 27 30 32 31 37 40 40 38 36 36 35 33 32 31 32
28 28 28 23 15 8 5 5 8 10 10 8 6 4 4 7 9 9 7 4 6 7 7 7 8 9 9 8 7 7 8 8 7 11 14 13 11 13 16 19 21 20 20 19 15 12 10 10 13 19 25 31 39 41 34 24 21 23 25 31 39 39 41 39 28 25 25 23 24 13 8 30 36 23 24 26 22 25 30 36 42 44 45 42 39 38 36 34
28 26 27 26 18 10 5 3 6 10 10 9 8 7 6 7 9 9 6 3 5 5 5 8 9 7 6 6 6 8 10 7 6 11 15 14 14 16 17 19 19 18 15 11 12 14 10 9 14 14 12 19 28 29 28 24 18 18 19 23 34 42 44 41 34 28 22 26 30 15 10 36 40 24 23 22 16 17 17 21 31 39 44 44 43 42 40 38
29 26 26 25 18 11 8 7 6 8 10 11 12 12 10 7 6 5 3 0 2 2 4 6 7 6 4 5 7 8 9 8 8 12 15 16 17 17 17 18 17 15 11 6 8 12 11 11 13 10 4 8 11 9 10 12 13 17 19 21 31 39 42 41 33 25 21 26 32 26 26 44 44 30 27 25 21 20 17 19 25 30 35 40 44 45 44 42
31 29 27 21 13 11 12 10 8 8 9 9 9 10 12 10 6 5 5 4 3 2 2 3 5 6 5 6 9 9 9 9 9 10 15 17 17 17 17 17 16 14 13 12 11 12 13 14 14 14 14 15 17 12 6 9 15 19 19 21 29 32 37 42 36 31 29 27 31 37 40 45 45 39 33 28 25 22 20 23 24 26 30 35 41 44 43 40
31 31 29 20 9 6 9 9 7 7 7 5 5 4 6 7 5 4 6 5 3 4 4 5 6 7 7 9 10 10 11 12 11 10 14 16 16 17 17 16 15 15 15 15 15 15 16 18 16 16 19 20 24 23 17 15 19 19 16 17 24 24 25 36 42 42 37 27 26 36 40 40 43 42 34 29 29 27 26 23 21 25 28 31 34 37 37 35
29 30 28 18 8 5 7 8 6 5 3 3 4 3 4 6 6 5 4 4 3 6 7 7 7 6 7 9 10 11 14 16 14 14 15 16 16 17 17 16 13 12 13 13 14 14 16 20 17 16 21 23 23 22 21 18 17 16 15 15 18 19 19 28 41 48 43 32 31 35 36 37 41 38 31 29 29 30 32 21 20 22 24 27 29 32 34 33
27 29 26 16 9 8 8 8 7 4 3 3 3 4 5 5 6 5 4 5 7 8 8 9 10 9 9 10 11 13 15 16 17 17 16 16 17 17 19 17 12 10 11 12 13 14 16 19 16 16 25 25 16 13 14 15 16 15 13 13 15 19 22 25 34 45 46 42 40 38 35 37 38 33 29 27 25 28 31 19 23 22 21 25 28 31 34 33
26 27 24 13 6 7 7 8 8 6 4 4 5 5 6 6 7 6 7 10 11 9 8 9 10 12 12 12 13 14 15 16 18 19 17 17 19 18 19 19 15 12 12 11 12 14 15 17 15 17 25 18 7 9 12 14 15 12 9 11 15 20 26 26 29 39 45 44 42 39 37 38 36 31 28 26 22 24 25 18 25 24 21 24 27 29 32 33
25 25 22 12 5 5 6 7 8 7 7 7 6 6 6 7 9 10 9 9 9 9 10 10 10 12 12 11 13 15 16 17 18 18 18 20 22 20 20 21 18 14 11 9 12 16 16 17 15 16 23 11 3 5 13 17 14 7 7 6 8 15 23 26 28 36 43 43 43 40 38 38 34 30 29 25 22 24 22 19 26 25 20 19 21 24 28 29
24 24 22 14 7 5 5 6 7 7 7 8 8 8 8 7 9 11 10 6 4 7 9 10 10 12 11 11 14 15 16 18 18 17 18 20 22 21 19 20 19 16 12 9 12 17 17 18 15 14 17 9 5 12 11 13 9 4 7 9 9 11 17 26 30 35 41 42 42 40 39 37 32 30 30 26 23 23 21 21 27 27 22 17 16 20 24 26
Wind_Direction
323 321 319 318 316 314 313 312 310 309 308 307 306 305 304 303 301 299 296 293 288 287 286 287 287 285 282 280 281 277 273 270 267 267 254 231 217 213 209 212 212 209 208 207 207 206 205 205 206 209 210 208 199 192 187 185 195 190 168 157 144 130 132 134 117 123 107 35 178 175 183 188 185 175 170 167 164 166 152 141 157 172 182 183 191 211 189 169
326 324 322 319 317 315 312 311 309 307 306 304 303 301 300 299 299 297 295 293 289 286 284 284 284 284 282 279 276 273 273 271 271 269 247 231 219 215 209 211 213 209 209 207 206 207 207 208 209 210 213 211 200 196 195 194 203 195 174 159 147 134 133 134 112 119 91 57 172 167 175 186 188 176 167 168 166 169 167 158 167 178 185 179 181 198 188 175
332 330 328 325 322 319 316 314 310 308 305 303 302 299 297 296 295 294 293 291 289 286 283 282 281 281 281 279 274 270 271 272 273 248 238 233 223 220 215 215 214 209 210 208 207 207 208 211 212 212 212 209 203 202 199 203 210 203 185 161 146 138 138 146 136 131 87 115 187 172 166 177 186 182 171 173 175 181 189 179 174 180 183 177 176 189 189 181
342 340 337 334 331 327 324 320 316 313 309 306 303 299 296 293 292 291 290 289 287 285 282 280 279 279 279 278 274 270 269 273 271 246 243 237 226 224 220 222 221 209 207 206 205 205 206 209 210 210 210 205 201 205 204 206 210 203 186 155 144 146 145 151 147 139 95 151 194 180 168 172 180 181 174 182 188 194 205 192 156 165 190 187 175 183 190 186
348 345 343 340 338 335 332 328 324 320 316 312 308 303 298 294 292 289 287 286 284 283 281 279 277 277 277 275 274 271 268 273 272 248 243 235 227 227 220 222 222 212 207 206 203 201 204 207 207 207 207 202 200 204 206 205 208 197 172 147 148 146 141 150 155 148 139 178 201 201 180 176 182 179 181 194 192 155 72 147 132 90 187 212 186 182 189 189
348 346 344 342 339 337 335 332 329 326 323 319 315 310 304 299 294 290 288 285 282 281 279 279 276 274 274 273 272 270 264 263 260 242 230 220 220 222 217 215 213 208 206 206 205 204 204 205 207 207 204 201 201 205 202 200 205 190 165 155 157 145 143 154 160 168 172 191 204 200 185 186 193 185 191 210 203 22 12 58 126 117 115 240 204 189 188 190
347 345 342 340 338 337 335 333 331 329 327 324 320 317 312 307 301 295 290 286 282 279 277 277 275 273 271 270 269 268 263 248 240 239 229 215 213 217 214 209 207 206 205 205 206 207 205 206 207 207 205 201 203 202 197 200 202 192 172 162 159 151 152 152 168 214 210 222 233 203 194 198 207 203 209 225 230 237 271 358 178 177 178 210 209 200 194 192
344 343 341 338 337 335 334 333 333 332 331 328 325 322 318 314 309 303 297 290 284 279 276 273 273 272 269 268 267 267 265 249 241 246 243 229 217 219 214 206 207 207 207 208 208 210 210 210 208 207 207 203 204 199 193 201 204 201 182 162 163 160 153 153 192 229 227 232 236 221 212 210 220 225 236 240 227 231 240 237 210 195 198 204 204 204 200 195
339 341 340 338 337 336 335 335 335 336 336 334 333 331 327 322 316 311 303 297 289 282 277 272 270 269 268 266 265 265 264 255 246 239 235 228 217 221 218 209 211 209 207 208 209 213 214 214 210 207 208 203 203 197 191 204 208 204 186 169 180 177 170 180 202 217 227 233 229 225 223 221 218 223 238 237 229 231 232 233 218 201 204 204 199 197 199 197
334 337 338 338 338 339 339 339 340 340 340 340 339 338 335 331 327 320 311 303 295 286 278 273 268 265 265 264 263 265 261 254 246 228 222 220 214 219 217 209 212 210 209 208 208 213 215 218 214 211 210 203 203 197 193 206 212 207 199 199 206 202 205 213 216 211 217 231 229 225 228 229 225 228 236 230 228 231 227 230 224 213 210 205 198 191 193 197
329 331 334 335 336 339 340 341 342 341 341 342 340 339 337 335 334 328 321 312 302 292 282 275 269 265 262 261 262 264 259 253 243 226 220 217 211 213 213 209 210 209 211 212 212 216 217 217 214 211 209 205 204 200 199 206 212 211 211 218 216 218 226 225 235 224 209 216 216 214 223 232 234 238 243 235 228 227 222 227 225 215 208 204 202 190 190 195
329 326 326 327 328 331 333 334 335 334 335 336 337 337 334 334 333 331 328 321 312 301 289 278 271 266 261 259 261 260 256 251 240 223 217 214 209 208 206 205 207 208 209 213 214 215 216 214 210 210 208 207 205 201 203 206 210 213 218 226 220 229 238 226 235 233 221 218 209 209 214 223 229 232 237 233 229 227 221 225 223 212 205 204 202 194 191 192
331 327 323 322 321 321 323 324 325 326 326 328 331 331 329 330 330 330 329 325 320 311 299 285 275 267 262 259 255 252 249 246 241 226 216 212 208 208 206 201 198 203 207 210 213 213 214 212 209 209 206 207 205 202 203 204 210 215 221 230 228 241 238 217 227 237 233 230 215 211 216 220 223 219 221 224 227 228 221 223 225 218 209 206 202 195 193 194
328 327 325 322 320 319 318 317 318 319 319 322 326 325 324 326 325 328 329 328 325 317 308 295 282 270 263 256 234 235 242 246 243 226 217 212 208 209 210 208 199 197 201 203 206 207 210 211 209 208 206 207 205 203 204 202 209 215 222 232 237 251 235 207 223 242 237 232 218 214 224 230 225 214 216 223 228 228 224 223 222 220 214 208 204 197 195 197
324 324 324 323 322 321 319 318 317 317 316 318 322 320 319 322 323 326 328 331 329 318 310 302 289 274 264 254 231 228 234 242 235 217 215 212 210 211 215 224 211 197 194 195 199 200 202 209 208 205 203 205 205 203 203 200 205 210 220 231 235 245 232 208 221 235 235 234 221 214 227 238 230 218 220 224 229 228 229 229 221 220 217 212 208 199 196 196
323 321 320 320 321 321 321 320 319 319 317 318 320 318 318 321 322 325 329 333 327 313 306 302 294 279 267 257 239 228 225 229 227 217 216 211 209 215 220 230 221 202 192 189 193 196 198 205 208 205 201 203 205 203 205 209 208 208 216 225 228 234 234 226 222 222 230 235 226 219 227 236 228 221 223 223 227 226 229 232 227 224 221 218 213 201 195 194
323 321 319 318 319 319 321 320 319 319 318 319 320 317 318 319 320 325 330 330 323 311 306 302 297 288 272 258 242 226 218 220 221 219 219 213 207 212 217 224 221 206 192 188 191 195 197 201 204 205 202 203 205 204 214 224 215 208 214 222 222 225 232 236 227 219 226 232 229 224 226 233 231 226 224 223 227 229 231 234 231 227 224 223 217 204 196 197
326 323 320 319 317 317 318 318 317 317 317 319 319 317 318 319 321 326 328 328 323 317 313 305 297 294 277 251 235 222 215 215 218 217 219 218 210 209 215 220 216 202 191 189 192 194 196 199 201 203 204 205 205 207 215 219 211 206 211 218 221 222 226 231 230 224 228 232 229 226 225 227 232 235 232 229 229 231 234 235 231 229 227 227 221 210 202 202
330 326 323 320 317 315 316 317 316 316 316 317 318 317 317 317 317 319 323 333 335 332 328 314 299 291 267 250 235 222 215 211 214 214 215 217 211 210 212 208 201 195 192 192 193 194 195 197 199 203 206 205 204 206 211 212 209 210 214 217 220 222 223 224 226 225 234 239 229 226 225 224 229 235 237 235 231 232 233 231 229 229 229 228 224 216 210 210
330 327 325 323 320 317 316 317 316 316 316 317 317 316 315 313 312 312 321 349 353 347 340 331 317 294 257 244 230 221 217 209 209 210 209 210 206 207 205 193 188 190 194 196 194 194 196 198 201 205 206 204 203 204 210 213 211 215 222 223 222 224 224 221 221 221 232 241 232 227 226 226 232 238 241 239 233 231 231 228 227 227 227 227 226 219 216 216
329 327 325 324 324 321 319 318 317 317 318 318 318 319 321 322 324 325 325 352 4 349 340 350 346 323 265 239 226 220 217 210 208 207 206 204 200 201 199 188 185 191 195 196 196 195 197 203 207 211 209 204 204 207 213 217 213 214 221 223 225 227 225 220 219 222 229 238 236 232 228 228 235 242 243 240 235 233 231 229 228 226 224 226 228 223 216 211
331 329 326 325 326 323 320 320 319 319 319 319 321 324 326 326 329 333 329 339 2 352 338 357 355 343 303 251 234 223 218 213 206 202 204 202 198 198 198 192 191 195 194 192 195 196 199 209 214 215 211 206 206 210 215 218 217 217 218 222 224 224 227 224 219 221 229 237 237 235 233 234 239 244 242 239 239 239 236 236 236 229 223 223 226 222 212 206
332 331 330 326 327 326 322 322 321 321 321 321 323 323 322 323 325 333 333 333 341 334 333 352 356 348 333 300 274 236 222 215 202 197 201 200 198 199 199 200 198 197 195 194 197 197 201 214 217 212 210 209 209 210 215 220 221 221 220 224 223 219 225 226 219 219 225 234 239 241 244 244 244 242 238 240 243 244 243 242 242 237 230 226 225 219 211 208
334 334 334 329 329 329 323 323 324 324 324 322 321 320 319 320 324 330 329 327 327 305 308 328 346 352 344 331 324 282 234 220 200 190 198 201 198 199 202 204 203 202 201 199 201 203 206 214 218 212 210 212 211 211 214 219 222 223 221 223 222 216 217 221 221 221 225 231 237 247 256 250 240 230 229 238 241 242 245 243 238 236 234 232 228 221 215 216
336 337 338 332 332 332 325 325 325 324 325 322 319 319 318 317 322 329 323 322 325 292 297 313 331 346 345 345 345 332 266 231 203 188 195 202 199 199 204 205 206 208 207 204 207 212 213 214 218 215 213 212 213 215 214 216 222 225 222 219 219 215 213 219 227 231 240 242 234 236 256 256 241 231 231 235 233 233 238 240 237 233 229 229 229 223 216 216
336 337 340 334 332 332 326 323 323 324 324 324 322 320 320 318 322 327 319 314 310 289 302 313 326 336 344 357 2 2 323 222 205 199 198 201 201 201 204 207 209 212 212 209 212 218 217 215 215 215 216 215 214 217 216 215 222 227 222 216 216 218 214 219 233 240 252 252 237 230 248 262 241 233 236 234 231 233 234 234 236 231 226 226 226 224 220 216
337 337 341 337 331 330 324 320 321 322 322 324 326 327 325 322 321 319 314 311 298 287 301 309 320 329 346 358 1 19 20 214 204 207 203 200 202 202 205 208 209 213 213 210 216 221 219 217 217 212 218 218 215 218 217 213 218 226 223 217 219 223 215 218 236 243 243 252 251 243 249 264 243 235 241 234 229 233 232 230 233 230 226 227 226 223 221 218
338 336 340 337 330 328 322 318 320 319 319 321 323 329 327 320 315 308 308 321 297 297 305 307 311 311 318 343 348 12 9 326 220 210 205 201 201 203 207 210 209 213 213 210 217 222 220 219 219 214 217 222 219 221 218 211 216 225 226 221 223 225 219 223 240 249 247 258 264 252 248 262 256 248 245 229 224 228 229 229 231 228 225 226 226 225 222 217
339 336 338 336 329 326 320 318 320 318 317 315 314 319 321 321 307 292 280 221 285 306 313 309 308 307 287 266 301 331 347 338 326 258 213 203 204 205 210 212 212 216 218 218 222 224 224 226 225 220 220 224 225 226 221 214 216 224 228 227 227 229 228 233 246 255 253 256 260 254 249 250 260 256 237 217 217 224 228 230 229 225 223 224 226 227 224 217
338 337 338 335 329 325 320 319 320 317 313 309 309 311 316 322 295 279 224 254 300 313 308 304 305 315 312 284 268 267 305 335 331 309 232 207 209 207 209 214 214 217 222 225 226 226 228 234 232 228 226 225 227 230 225 221 219 222 227 227 230 232 233 240 250 253 253 247 247 251 251 247 253 255 238 220 221 227 228 228 228 225 224 225 227 229 228 221
338 338 337 334 328 324 322 321 319 316 313 309 308 308 310 309 282 240 183 274 307 311 306 314 316 325 341 330 292 256 288 322 334 334 258 212 211 208 209 215 219 223 225 225 227 226 227 231 231 233 234 230 229 230 230 228 223 220 222 219 225 231 230 239 245 238 235 241 244 249 252 247 239 245 245 239 237 235 230 227 226 225 224 225 228 229 230 227
337 339 336 334 333 331 330 328 324 320 314 308 306 304 301 294 265 227 294 293 315 323 323 332 330 334 349 342 319 293 296 316 339 22 31 42 143 187 193 196 212 223 228 224 224 225 225 227 227 229 236 232 229 227 226 230 224 218 218 215 216 221 221 226 226 218 220 237 242 248 252 245 241 246 246 246 247 239 233 230 227 226 225 226 229 230 230 230
336 339 339 338 340 341 338 333 330 327 318 308 308 308 297 263 232 334 326 321 329 328 328 330 330 338 343 339 332 316 309 315 316 24 18 24 76 115 150 184 197 207 223 222 220 222 224 230 228 226 229 228 226 223 218 220 220 216 213 211 207 197 202 217 208 222 230 230 239 246 249 243 243 247 243 241 246 244 241 238 233 231 231 231 233 232 231 230
335 340 342 343 347 347 342 337 336 336 330 317 311 316 331 106 352 342 341 339 329 324 328 327 330 342 344 349 354 333 323 325 303 328 352 357 47 65 101 183 196 209 219 213 214 217 216 224 224 220 221 222 223 224 220 217 217 217 215 211 212 210 207 207 191 200 194 203 235 240 236 219 229 240 239 236 242 244 246 247 238 233 233 236 236 235 233 230
336 342 344 346 352 351 344 341 339 343 346 337 331 16 62 62 359 346 339 334 332 327 327 328 333 349 353 357 3 345 336 335 314 313 341 357 12 24 33 46 56 109 216 206 221 224 219 224 225 220 219 220 221 225 224 218 217 221 217 211 215 217 214 215 230 230 203 189 230 229 219 208 235 244 241 237 240 239 239 247 242 233 231 233 234 234 235 233
338 341 346 348 352 352 347 343 338 347 2 7 41 60 61 48 354 344 331 325 330 325 320 326 339 0 3 1 4 351 339 336 327 327 349 4 360 3 15 23 38 49 33 1 307 268 241 231 222 217 220 221 221 223 222 217 215 217 213 212 217 219 217 220 244 243 219 200 230 229 225 221 231 245 243 239 240 236 231 236 238 234 232 232 233 234 236 236
340 343 347 348 348 347 347 345 338 350 17 34 69 58 46 40 353 338 330 325 329 324 322 334 353 8 8 5 9 353 341 345 347 349 4 7 352 341 350 360 16 37 31 15 339 2 327 260 219 204 214 218 221 226 227 223 220 215 212 216 217 217 220 223 231 240 212 209 240 234 227 208 199 223 235 234 235 234 230 228 226 227 230 233 235 236 237 238
342 344 346 345 344 337 332 340 329 324 6 28 87 60 38 44 2 345 345 339 332 325 330 349 5 12 11 7 3 348 345 355 355 356 11 15 358 331 326 332 332 345 12 15 2 348 334 289 224 203 208 212 212 220 225 227 227 223 222 223 214 205 213 217 218 230 215 217 258 240 229 211 200 206 218 223 228 230 229 225 220 218 223 231 234 234 236 237
342 344 348 346 342 330 314 316 306 286 289 260 118 68 27 2 344 351 354 344 335 334 342 359 360 356 6 3 347 339 345 348 346 351 5 7 347 319 314 315 306 310 334 355 355 350 350 312 239 206 205 210 210 213 218 219 222 223 226 229 220 213 212 211 213 221 219 211 239 245 245 225 220 218 218 223 229 230 229 224 221 218 219 227 231 231 231 230
342 345 351 349 343 328 308 301 297 285 265 236 155 108 81 292 303 350 9 354 346 354 353 347 342 339 345 344 334 337 344 338 339 350 356 348 335 313 309 309 297 298 310 330 346 346 348 329 275 217 202 207 210 211 215 217 216 215 218 219 217 216 213 213 217 220 223 229 184 208 258 242 234 231 228 228 229 232 231 227 225 224 222 225 228 229 229 225
345 348 353 354 348 331 306 291 287 274 248 226 191 162 155 240 265 283 359 15 18 11 356 338 339 347 344 339 339 347 352 334 333 348 352 344 339 322 311 314 311 305 303 313 335 344 341 331 295 248 222 209 208 209 214 217 215 215 218 217 215 212 205 203 215 218 221 233 229 199 264 254 244 240 240 239 236 235 234 230 227 225 224 225 225 225 224 223
351 350 353 357 353 337 305 273 261 249 231 219 217 210 204 258 268 270 315 12 24 359 345 329 329 344 345 343 349 358 358 335 328 347 349 338 337 323 310 313 314 310 310 312 319 333 332 324 302 270 247 216 205 207 210 211 211 214 219 221 221 216 208 205 206 209 212 225 242 249 281 261 251 244 245 247 244 241 239 237 235 232 230 229 227 225 222 221
356 353 353 356 357 352 327 271 245 231 224 224 236 249 257 266 274 274 277 327 3 350 340 326 325 342 348 347 344 337 341 340 336 347 341 330 328 317 308 312 310 307 313 313 310 323 332 331 319 287 254 223 208 207 209 210 215 222 225 223 223 220 217 217 219 216 208 211 228 237 273 259 251 241 241 242 239 239 239 238 237 237 238 235 231 230 225 223
358 358 354 354 355 359 359 313 255 234 234 248 256 262 266 267 276 275 268 323 7 11 5 341 336 350 354 343 332 325 337 349 337 333 331 326 324 315 306 307 307 307 315 321 322 324 321 328 332 319 276 233 218 216 220 224 227 232 232 225 223 223 222 222 221 220 217 215 217 214 246 250 247 239 233 231 231 235 238 243 240 235 236 235 232 230 226 226
355 360 357 352 346 347 357 346 301 264 260 269 274 277 278 278 274 253 226 304 344 0 18 354 341 345 336 325 323 323 335 343 331 325 326 323 319 314 307 303 305 307 302 292 308 307 292 297 313 315 283 237 233 229 234 246 239 225 222 217 217 220 222 221 216 210 214 218 215 214 233 244 246 245 239 234 238 244 255 270 259 238 230 228 227 227 225 227
350 357 357 351 339 337 347 343 315 296 292 288 285 285 284 281 267 235 228 234 246 257 328 325 310 314 321 318 317 319 323 325 323 317 317 317 315 311 305 303 307 304 287 269 262 267 276 283 286 284 272 268 278 275 262 291 273 236 221 212 209 215 221 220 214 211 215 217 215 221 233 243 249 252 248 239 235 246 274 282 262 236 224 222 222 223 225 227
349 352 353 354 348 335 343 343 318 300 312 324 316 304 296 293 285 252 235 237 268 285 268 269 289 311 328 324 317 318 315 312 314 313 312 313 310 308 303 302 306 297 282 275 264 260 273 273 269 283 285 283 290 280 257 271 275 255 250 233 213 212 219 219 217 216 218 215 217 227 232 239 251 254 249 239 233 249 276 273 238 224 221 217 217 219 221 224
349 349 350 354 355 341 342 350 337 296 293 6 3 335 316 310 313 304 250 225 302 311 283 275 290 305 318 320 316 316 314 313 315 315 313 311 307 306 307 308 308 295 277 270 262 258 267 267 265 286 293 291 292 280 260 264 270 265 275 264 231 219 218 221 222 220 219 220 226 233 232 237 249 250 242 244 246 261 276 257 206 207 217 214 215 216 216 217
349 348 349 353 352 347 348 355 355 328 291 320 326 310 311 314 320 322 302 278 289 297 290 289 296 298 303 311 312 312 312 310 309 309 308 306 301 301 307 307 305 298 281 263 252 248 254 261 265 292 301 295 281 259 250 258 262 265 284 290 271 245 222 219 224 221 221 226 233 238 237 240 249 249 247 258 262 268 274 242 185 187 204 206 208 209 210 211
347 346 348 355 356 346 351 1 7 9 356 331 307 302 312 314 314 315 312 305 298 293 294 297 298 297 301 311 312 308 303 296 296 302 300 295 293 296 300 299 299 299 286 263 246 239 244 254 262 297 309 300 238 208 223 236 251 271 304 297 272 245 220 213 220 219 219 225 232 237 240 242 249 252 257 266 262 262 265 226 182 181 192 199 203 204 204 207
345 343 346 357 13 358 0 12 15 20 21 8 348 331 321 311 311 312 312 315 310 302 298 300 303 299 299 311 313 309 304 294 291 294 289 282 284 287 288 288 292 295 282 259 241 231 237 247 254 304 317 299 190 242 236 224 234 265 328 307 238 221 216 210 213 214 214 220 227 231 236 241 246 249 254 259 256 255 253 215 189 187 187 195 207 209 207 208
343 341 344 355 20 28 16 14 15 19 19 13 5 348 333 325 319 313 310 314 319 307 295 292 298 299 301 311 313 311 307 296 290 289 283 278 277 276 276 276 279 281 271 251 237 228 232 244 258 313 320 277 303 322 262 223 230 259 9 31 95 150 196 203 205 209 210 215 223 227 231 237 242 244 247 251 250 246 236 207 192 192 193 200 213 215 212 210
Height
3145 3143 3142 3141 3140 3138 3137 3136 3135 3134 3133 3133 3132 3131 3130 3130 3129 3129 3128 3128 3128 3127 3126 3126 3125 3126 3126 3126 3126 3126 3125 3125 3125 3126 3126 3127 3127 3128 3129 3131 3132 3134 3135 3136 3138 3140 3142 3144 3146 3147 3149 3150 3151 3152 3152 3153 3153 3154 3154 3154 3154 3154 3155 3155 3155 3156 3157 3157 3157 3157 3157 3158 3158 3159 3160 3161 3161 3162 3162 3162 3163 3165 3166 3168 3169 3170 3170 3170
3143 3142 3141 3139 3138 3137 3136 3134 3133 3132 3132 3131 3130 3129 3129 3128 3127 3127 3126 3126 3126 3125 3125 3124 3124 3124 3124 3124 3124 3124 3124 3124 3124 3125 3125 3125 3125 3126 3128 3129 3130 3132 3133 3135 3138 3140 3142 3144 3145 3146 3148 3149 3151 3151 3151 3152 3152 3153 3153 3153 3153 3154 3154 3155 3155 3156 3157 3158 3158 3158 3158 3158 3159 3159 3160 3161 3161 3162 3162 3162 3163 3164 3165 3166 3168 3169 3170 3170
3142 3141 3139 3138 3137 3135 3134 3133 3131 3130 3129 3129 3128 3127 3127 3126 3125 3125 3125 3124 3124 3124 3123 3123 3122 3122 3122 3122 3123 3123 3123 3122 3123 3124 3123 3123 3123 3125 3126 3127 3129 3131 3133 3136 3138 3140 3142 3143 3144 3145 3147 3148 3149 3150 3151 3151 3152 3153 3153 3153 3153 3154 3154 3154 3155 3156 3158 3158 3158 3158 3158 3159 3160 3160 3161 3161 3161 3162 3162 3162 3163 3164 3165 3166 3166 3168 3170 3170
3141 3140 3138 3137 3135 3134 3132 3131 3130 3128 3127 3127 3126 3125 3124 3123 3123 3123 3122 3122 3122 3122 3121 3121 3121 3120 3120 3120 3121 3121 3121 3121 3121 3121 3121 3122 3122 3123 3125 3126 3129 3131 3132 3134 3136 3138 3139 3140 3141 3144 3145 3147 3147 3148 3149 3150 3151 3152 3152 3152 3153 3154 3154 3154 3155 3156 3157 3159 3159 3159 3158 3159 3159 3160 3161 3161 3161 3161 3162 3163 3163 3164 3165 3166 3166 3167 3169 3170
3140 3139 3137 3136 3134 3133 3131 3129 3128 3127 3125 3124 3124 3123 3122 3121 3121 3120 3120 3120 3120 3120 3119 3119 3119 3118 3118 3118 3118 3119 3120 3120 3119 3120 3120 3121 3121 3122 3124 3126 3128 3131 3131 3132 3133 3134 3135 3137 3139 3141 3143 3145 3145 3146 3148 3150 3151 3151 3151 3152 3153 3153 3154 3154 3155 3156 3157 3159 3159 3159 3159 3159 3159 3160 3160 3160 3160 3162 3162 3163 3164 3165 3166 3167 3167 3168 3169 3170
3140 3138 3136 3135 3133 3131 3130 3128 3127 3125 3124 3123 3121 3120 3119 3119 3118 3118 3118 3117 3117 3117 3117 3117 3117 3117 3116 3116 3117 3117 3118 3119 3118 3118 3118 3119 3119 3120 3122 3124 3126 3128 3129 3130 3131 3131 3132 3134 3136 3137 3140 3143 3144 3146 3148 3149 3150 3150 3150 3151 3151 3152 3153 3154 3155 3156 3158 3158 3159 3160 3160 3160 3159 3159 3160 3160 3160 3162 3163 3163 3164 3165 3166 3168 3168 3168 3169 3171
3139 3138 3136 3134 3132 3131 3129 3127 3125 3124 3122 3121 3119 3118 3117 3116 3116 3115 3115 3115 3115 3115 3115 3115 3114 3114 3114 3114 3114 3115 3116 3117 3116 3116 3117 3117 3117 3118 3119 3121 3123 3124 3126 3127 3128 3129 3130 3131 3133 3136 3139 3141 3143 3146 3148 3148 3149 3149 3149 3150 3150 3151 3152 3153 3154 3156 3158 3159 3159 3160 3160 3160 3159 3160 3160 3160 3160 3161 3162 3164 3165 3166 3166 3168 3168 3169 3170 3171
3139 3137 3135 3133 3131 3130 3128 3126 3124 3123 3121 3119 3118 3116 3115 3114 3113 3113 3112 3112 3112 3112 3112 3112 3112 3112 3112 3112 3112 3113 3114 3114 3114 3115 3116 3116 3116 3116 3118 3119 3120 3122 3124 3126 3127 3128 3129 3130 3132 3135 3137 3140 3143 3146 3147 3147 3148 3148 3149 3149 3150 3150 3151 3153 3154 3156 3157 3158 3160 3160 3159 3160 3160 3160 3160 3160 3159 3160 3162 3164 3165 3165 3166 3167 3168 3170 3171 3172
3138 3136 3134 3132 3130 3129 3127 3125 3123 3122 3120 3118 3116 3115 3113 3112 3111 3110 3110 3109 3109 3109 3109 3109 3109 3109 3109 3110 3110 3111 3111 3112 3113 3114 3115 3115 3115 3115 3116 3118 3119 3121 3123 3126 3127 3128 3128 3129 3131 3134 3136 3140 3143 3145 3146 3145 3146 3147 3149 3149 3149 3149 3150 3152 3153 3155 3156 3157 3159 3159 3158 3160 3160 3160 3160 3159 3159 3160 3162 3164 3165 3165 3166 3167 3168 3169 3171 3172
3137 3135 3133 3131 3129 3128 3126 3124 3123 3121 3119 3117 3115 3114 3112 3110 3109 3108 3107 3107 3106 3106 3106 3106 3106 3106 3107 3107 3107 3108 3109 3109 3111 3112 3112 3113 3113 3113 3114 3117 3118 3120 3122 3124 3125 3126 3127 3129 3133 3136 3138 3140 3142 3143 3144 3144 3145 3147 3148 3148 3148 3148 3149 3150 3151 3154 3156 3156 3157 3158 3158 3159 3160 3159 3159 3159 3160 3161 3162 3163 3164 3165 3165 3166 3167 3168 3170 3171
3136 3134 3132 3130 3128 3127 3125 3123 3122 3120 3118 3116 3114 3113 3111 3109 3108 3106 3105 3104 3103 3103 3103 3103 3103 3104 3104 3104 3105 3106 3106 3107 3109 3110 3110 3111 3111 3111 3113 3115 3118 3119 3121 3123 3124 3126 3128 3131 3134 3135 3137 3139 3140 3141 3142 3143 3145 3146 3147 3147 3146 3147 3147 3148 3149 3152 3155 3156 3157 3158 3158 3159 3159 3158 3157 3158 3159 3161 3162 3163 3164 3164 3165 3166 3166 3168 3169 3170
3134 3133 3131 3129 3127 3125 3124 3122 3121 3119 3117 3115 3113 3111 3109 3107 3106 3105 3103 3102 3101 3100 3100 3100 3100 3100 3101 3102 3104 3104 3104 3104 3105 3107 3107 3109 3110 3110 3111 3113 3117 3119 3121 3122 3124 3126 3128 3130 3131 3132 3134 3136 3138 3140 3141 3142 3144 3145 3146 3145 3144 3145 3144 3145 3147 3149 3153 3155 3156 3158 3158 3158 3157 3156 3157 3158 3159 3160 3162 3162 3163 3164 3164 3165 3166 3167 3168 3169
3133 3131 3129 3128 3125 3124 3122 3120 3119 3117 3115 3114 3112 3110 3108 3106 3105 3103 3102 3100 3099 3097 3097 3097 3096 3097 3097 3100 3102 3101 3101 3101 3102 3104 3105 3106 3108 3109 3109 3110 3114 3117 3120 3122 3125 3126 3127 3128 3129 3130 3133 3135 3136 3138 3139 3140 3141 3142 3144 3143 3143 3143 3141 3142 3145 3147 3150 3153 3155 3157 3156 3155 3155 3156 3157 3157 3158 3160 3161 3162 3162 3163 3164 3164 3165 3166 3167 3168
3131 3130 3128 3126 3124 3122 3120 3118 3117 3115 3113 3112 3110 3108 3106 3105 3103 3101 3100 3098 3097 3095 3094 3094 3093 3093 3093 3097 3100 3098 3098 3100 3101 3103 3104 3105 3107 3108 3109 3109 3111 3113 3116 3120 3123 3125 3126 3126 3127 3129 3131 3133 3135 3137 3137 3138 3139 3140 3142 3142 3141 3141 3139 3140 3144 3145 3147 3150 3153 3155 3153 3152 3154 3155 3155 3156 3157 3158 3160 3161 3161 3162 3162 3163 3164 3165 3165 3167
3130 3128 3126 3124 3122 3120 3118 3116 3115 3113 3111 3110 3109 3106 3104 3103 3101 3100 3098 3096 3094 3092 3091 3091 3090 3090 3089 3093 3096 3095 3097 3098 3099 3101 3101 3103 3105 3106 3108 3109 3110 3111 3113 3117 3120 3122 3123 3124 3124 3125 3128 3131 3133 3134 3135 3136 3136 3137 3138 3138 3139 3140 3138 3139 3142 3143 3145 3148 3151 3153 3150 3149 3152 3153 3153 3154 3155 3157 3159 3159 3160 3161 3161 3162 3162 3163 3164 3166
3127 3126 3124 3122 3120 3117 3116 3114 3112 3111 3109 3108 3106 3104 3102 3100 3099 3098 3096 3094 3093 3090 3088 3088 3087 3087 3087 3089 3091 3092 3094 3095 3096 3097 3098 3101 3103 3105 3107 3108 3108 3109 3111 3114 3116 3118 3120 3121 3122 3124 3126 3128 3130 3131 3132 3133 3133 3134 3135 3135 3137 3138 3138 3138 3140 3141 3144 3146 3148 3149 3148 3147 3150 3151 3151 3153 3154 3156 3157 3158 3159 3159 3160 3160 3161 3162 3163 3164
3126 3124 3122 3120 3117 3115 3113 3112 3110 3108 3107 3106 3104 3102 3100 3098 3097 3096 3095 3093 3090 3087 3085 3085 3084 3084 3084 3085 3087 3088 3090 3091 3092 3093 3095 3098 3100 3102 3104 3105 3106 3107 3109 3111 3112 3114 3116 3117 3119 3121 3123 3125 3127 3129 3129 3128 3127 3130 3131 3133 3135 3137 3137 3137 3138 3140 3142 3144 3145 3146 3146 3146 3148 3149 3150 3151 3152 3154 3155 3156 3157 3158 3159 3159 3160 3160 3161 3162
3124 3122 3120 3118 3116 3113 3111 3109 3108 3106 3104 3103 3101 3099 3097 3096 3095 3094 3093 3091 3088 3085 3083 3082 3081 3081 3082 3082 3082 3083 3084 3086 3087 3089 3092 3095 3098 3099 3100 3102 3104 3105 3106 3107 3108 3110 3112 3114 3116 3118 3120 3120 3122 3122 3121 3120 3123 3126 3128 3130 3133 3134 3135 3135 3136 3139 3141 3142 3143 3144 3145 3145 3147 3148 3148 3149 3150 3152 3152 3154 3156 3157 3157 3158 3158 3159 3160 3161
3122 3121 3119 3117 3114 3111 3109 3107 3105 3103 3102 3100 3098 3096 3095 3094 3093 3093 3092 3090 3085 3083 3081 3079 3078 3079 3080 3079 3079 3079 3079 3081 3083 3086 3089 3092 3096 3097 3098 3100 3101 3102 3102 3102 3104 3106 3108 3110 3112 3112 3111 3111 3112 3114 3114 3118 3124 3127 3128 3130 3131 3132 3133 3134 3135 3137 3140 3141 3141 3142 3142 3144 3145 3146 3146 3147 3148 3150 3151 3152 3154 3155 3156 3156 3156 3157 3158 3159
3121 3119 3117 3115 3112 3109 3107 3105 3103 3100 3099 3098 3096 3094 3092 3091 3091 3091 3091 3088 3084 3082 3080 3077 3076 3077 3077 3077 3076 3074 3075 3077 3079 3082 3085 3088 3092 3094 3096 3097 3097 3098 3098 3099 3101 3103 3105 3105 3103 3101 3100 3103 3109 3113 3116 3120 3124 3126 3128 3129 3130 3131 3131 3132 3135 3137 3139 3139 3138 3140 3141 3143 3144 3144 3144 3145 3147 3148 3148 3149 3151 3152 3154 3154 3155 3155 3156 3158
3119 3116 3114 3113 3110 3107 3105 3103 3101 3098 3096 3095 3093 3091 3088 3087 3086 3086 3086 3085 3083 3081 3079 3077 3075 3075 3074 3073 3071 3071 3073 3074 3076 3080 3082 3085 3088 3090 3092 3093 3093 3093 3094 3098 3101 3102 3103 3100 3096 3095 3099 3105 3111 3114 3117 3120 3122 3124 3126 3127 3128 3128 3128 3131 3133 3135 3138 3138 3137 3139 3140 3141 3142 3142 3143 3144 3144 3144 3144 3145 3147 3149 3151 3153 3154 3154 3155 3157
3116 3114 3112 3110 3108 3105 3103 3101 3099 3097 3095 3092 3091 3089 3087 3085 3085 3084 3083 3082 3081 3080 3078 3077 3075 3074 3072 3070 3068 3068 3070 3073 3076 3079 3080 3083 3084 3086 3089 3089 3089 3090 3093 3097 3098 3099 3099 3094 3092 3096 3103 3108 3111 3114 3117 3118 3120 3122 3123 3125 3125 3125 3127 3129 3131 3133 3136 3135 3135 3137 3139 3139 3140 3140 3141 3141 3140 3140 3141 3142 3144 3146 3148 3151 3152 3152 3154 3156
3114 3112 3110 3108 3106 3104 3101 3099 3098 3095 3093 3091 3089 3088 3086 3085 3084 3083 3082 3081 3080 3079 3077 3076 3075 3073 3071 3068 3066 3066 3067 3071 3075 3077 3078 3079 3081 3084 3086 3086 3087 3090 3091 3092 3092 3093 3092 3088 3091 3099 3104 3106 3109 3112 3115 3116 3118 3118 3120 3121 3121 3123 3126 3127 3129 3132 3134 3133 3133 3135 3137 3137 3137 3137 3138 3138 3137 3139 3140 3141 3143 3144 3146 3147 3149 3150 3152 3153
3112 3110 3108 3105 3104 3102 3099 3098 3096 3094 3092 3090 3088 3087 3085 3083 3083 3082 3081 3080 3079 3078 3076 3075 3075 3073 3070 3068 3065 3065 3066 3068 3072 3076 3076 3077 3080 3082 3084 3085 3087 3088 3087 3088 3090 3089 3088 3088 3093 3099 3101 3104 3107 3110 3112 3114 3114 3115 3117 3117 3117 3121 3124 3125 3128 3130 3131 3131 3131 3133 3134 3133 3134 3134 3134 3135 3136 3137 3139 3140 3142 3142 3144 3146 3149 3151 3151 3151
3110 3108 3106 3103 3102 3100 3097 3096 3094 3093 3091 3089 3087 3086 3084 3082 3081 3081 3080 3078 3078 3077 3075 3074 3074 3072 3070 3068 3066 3064 3065 3067 3071 3075 3074 3074 3077 3079 3081 3084 3084 3084 3085 3088 3090 3089 3088 3091 3094 3097 3099 3102 3104 3106 3108 3110 3112 3113 3112 3113 3116 3120 3123 3124 3127 3129 3129 3128 3128 3132 3131 3129 3130 3131 3131 3132 3133 3134 3136 3137 3138 3139 3142 3144 3147 3149 3150 3150
3109 3106 3105 3101 3099 3098 3096 3094 3092 3091 3090 3088 3086 3085 3083 3082 3080 3080 3079 3077 3076 3075 3074 3074 3073 3072 3070 3069 3066 3063 3064 3067 3070 3071 3071 3073 3075 3076 3079 3080 3080 3081 3083 3088 3089 3087 3087 3090 3094 3095 3097 3099 3101 3103 3105 3108 3111 3109 3107 3111 3115 3118 3121 3123 3125 3128 3127 3126 3126 3130 3129 3126 3127 3127 3127 3129 3130 3130 3132 3133 3134 3136 3139 3140 3142 3146 3148 3148
3107 3104 3103 3100 3097 3096 3094 3091 3090 3089 3087 3086 3085 3083 3082 3080 3079 3079 3078 3077 3075 3074 3074 3073 3072 3071 3070 3069 3067 3065 3064 3064 3066 3067 3068 3069 3071 3073 3074 3074 3076 3078 3082 3087 3084 3080 3083 3088 3091 3093 3095 3097 3097 3098 3100 3106 3107 3102 3104 3112 3115 3117 3120 3121 3124 3126 3125 3124 3123 3125 3127 3125 3123 3123 3124 3126 3126 3127 3129 3129 3131 3133 3135 3136 3138 3142 3145 3146
3106 3103 3102 3099 3096 3093 3091 3089 3088 3086 3085 3084 3083 3082 3080 3079 3078 3078 3078 3077 3075 3073 3072 3072 3071 3071 3071 3070 3068 3067 3067 3065 3064 3064 3064 3065 3066 3068 3069 3070 3074 3076 3079 3081 3075 3075 3081 3083 3085 3090 3092 3092 3091 3092 3097 3103 3103 3100 3105 3112 3114 3117 3119 3120 3123 3124 3125 3125 3119 3118 3124 3124 3120 3121 3122 3122 3123 3123 3123 3125 3127 3129 3131 3132 3135 3138 3142 3144
3105 3101 3100 3098 3094 3092 3089 3087 3086 3084 3083 3081 3080 3080 3078 3078 3078 3077 3078 3077 3074 3072 3071 3071 3070 3070 3070 3069 3068 3068 3067 3065 3064 3063 3062 3063 3065 3066 3067 3070 3074 3076 3077 3077 3074 3077 3080 3081 3085 3089 3089 3087 3089 3093 3098 3101 3100 3102 3107 3111 3113 3116 3117 3119 3121 3122 3124 3123 3115 3113 3119 3121 3117 3117 3119 3119 3118 3117 3118 3121 3124 3126 3127 3129 3131 3135 3139 3142
3103 3100 3098 3096 3093 3090 3088 3085 3083 3081 3080 3079 3078 3078 3077 3076 3076 3076 3077 3075 3072 3071 3070 3070 3070 3069 3067 3066 3066 3066 3066 3065 3064 3062 3062 3062 3063 3064 3066 3070 3074 3075 3075 3076 3075 3078 3080 3082 3085 3086 3085 3087 3091 3095 3097 3099 3101 3104 3108 3111 3113 3114 3116 3118 3118 3121 3122 3116 3109 3109 3114 3119 3115 3111 3113 3114 3113 3114 3116 3118 3121 3124 3125 3126 3128 3131 3136 3139
3101 3099 3096 3094 3091 3088 3086 3084 3082 3079 3078 3077 3076 3076 3075 3075 3075 3076 3075 3073 3072 3071 3068 3068 3068 3067 3066 3065 3065 3065 3065 3064 3063 3062 3061 3061 3061 3063 3066 3069 3071 3072 3072 3072 3074 3076 3079 3082 3082 3082 3084 3088 3091 3094 3095 3098 3101 3104 3106 3109 3112 3112 3114 3116 3116 3118 3115 3107 3106 3108 3111 3115 3110 3105 3108 3110 3110 3112 3113 3114 3117 3120 3122 3123 3125 3128 3132 3136
3099 3097 3094 3091 3088 3086 3084 3082 3080 3078 3076 3075 3075 3075 3074 3074 3074 3075 3073 3072 3072 3071 3068 3067 3067 3067 3067 3066 3065 3065 3063 3063 3063 3062 3061 3061 3061 3062 3063 3064 3065 3066 3066 3067 3070 3073 3076 3078 3079 3081 3083 3086 3088 3090 3093 3095 3098 3101 3104 3107 3109 3109 3111 3111 3110 3110 3106 3102 3104 3107 3109 3107 3101 3100 3104 3106 3108 3109 3109 3111 3114 3116 3118 3120 3122 3124 3128 3132
3097 3095 3093 3089 3086 3084 3082 3080 3078 3076 3075 3074 3073 3074 3074 3074 3074 3074 3073 3072 3072 3071 3069 3068 3067 3067 3067 3066 3065 3064 3062 3062 3062 3063 3062 3062 3061 3060 3060 3061 3061 3061 3061 3063 3067 3070 3072 3074 3076 3079 3079 3081 3083 3084 3086 3089 3092 3095 3097 3100 3102 3103 3105 3104 3103 3103 3101 3101 3103 3105 3107 3100 3093 3095 3098 3101 3104 3106 3108 3110 3111 3113 3115 3117 3119 3122 3125 3129
3095 3093 3091 3088 3085 3082 3080 3078 3077 3076 3074 3073 3072 3072 3072 3074 3074 3074 3073 3072 3072 3071 3070 3068 3067 3067 3067 3067 3065 3063 3062 3061 3061 3062 3062 3062 3061 3059 3059 3059 3060 3060 3059 3062 3064 3065 3066 3066 3066 3070 3072 3075 3078 3079 3081 3085 3089 3090 3092 3096 3096 3094 3095 3096 3097 3098 3098 3100 3100 3102 3099 3091 3087 3090 3094 3098 3102 3103 3106 3106 3108 3111 3113 3115 3118 3120 3122 3126
3092 3091 3089 3086 3084 3081 3079 3077 3076 3075 3074 3073 3072 3071 3072 3074 3074 3073 3073 3072 3071 3070 3070 3068 3067 3066 3066 3067 3066 3064 3063 3062 3061 3062 3062 3061 3061 3060 3060 3059 3060 3060 3060 3062 3062 3061 3060 3058 3060 3066 3069 3072 3074 3075 3080 3084 3085 3086 3089 3092 3089 3086 3089 3093 3094 3094 3096 3098 3096 3092 3088 3084 3085 3088 3092 3096 3098 3100 3103 3104 3105 3107 3109 3113 3116 3118 3120 3123
3091 3089 3087 3084 3083 3081 3079 3077 3075 3074 3074 3073 3072 3071 3072 3074 3074 3073 3072 3072 3071 3070 3069 3068 3067 3066 3065 3065 3065 3064 3063 3063 3061 3061 3062 3062 3061 3061 3061 3060 3061 3061 3062 3062 3061 3060 3058 3055 3058 3064 3066 3068 3071 3073 3077 3080 3080 3082 3085 3083 3081 3086 3092 3095 3094 3093 3095 3094 3088 3083 3082 3083 3085 3087 3089 3092 3094 3096 3100 3101 3102 3103 3106 3109 3112 3115 3118 3120
3089 3086 3085 3082 3081 3080 3078 3077 3075 3074 3074 3074 3073 3072 3073 3074 3074 3073 3072 3071 3071 3069 3068 3067 3067 3066 3065 3065 3065 3063 3062 3062 3061 3061 3061 3061 3061 3061 3061 3061 3062 3062 3063 3063 3061 3061 3059 3052 3052 3059 3061 3064 3069 3073 3075 3076 3078 3080 3079 3078 3083 3091 3094 3094 3094 3092 3092 3090 3083 3079 3080 3082 3082 3083 3084 3088 3090 3092 3096 3098 3100 3101 3103 3105 3108 3112 3114 3117
3086 3084 3082 3080 3079 3078 3077 3076 3075 3074 3074 3073 3073 3073 3073 3074 3073 3072 3071 3071 3070 3069 3068 3067 3067 3067 3066 3065 3065 3063 3062 3061 3061 3061 3061 3061 3061 3061 3061 3061 3061 3061 3062 3063 3062 3061 3059 3053 3050 3055 3059 3061 3066 3070 3072 3073 3076 3077 3077 3078 3084 3087 3086 3088 3090 3088 3088 3088 3083 3079 3078 3078 3079 3079 3080 3084 3087 3089 3092 3095 3097 3099 3101 3102 3105 3109 3111 3114
3084 3082 3081 3079 3077 3075 3074 3074 3073 3073 3073 3073 3072 3072 3073 3073 3072 3071 3070 3070 3069 3068 3067 3067 3067 3067 3066 3065 3064 3063 3062 3062 3061 3061 3061 3061 3061 3060 3060 3060 3060 3060 3061 3062 3061 3060 3059 3057 3052 3051 3055 3058 3060 3063 3065 3067 3070 3074 3076 3078 3080 3080 3080 3082 3084 3083 3084 3085 3082 3080 3077 3073 3074 3077 3079 3082 3085 3088 3090 3092 3095 3097 3099 3099 3102 3105 3108 3111
3083 3081 3080 3078 3075 3074 3072 3071 3071 3071 3072 3072 3071 3071 3072 3072 3071 3070 3069 3068 3068 3067 3067 3066 3066 3065 3065 3064 3064 3063 3062 3061 3061 3060 3061 3061 3061 3060 3059 3059 3058 3058 3058 3060 3061 3059 3058 3058 3053 3048 3051 3053 3055 3057 3059 3062 3066 3069 3070 3072 3073 3075 3077 3080 3080 3080 3081 3081 3080 3080 3075 3069 3071 3076 3077 3080 3084 3086 3088 3090 3093 3095 3097 3098 3099 3102 3105 3108
3081 3079 3079 3077 3074 3072 3070 3069 3070 3070 3071 3070 3070 3070 3070 3070 3069 3069 3068 3068 3067 3067 3066 3065 3065 3064 3064 3063 3063 3062 3061 3060 3060 3060 3059 3059 3060 3059 3058 3058 3057 3056 3056 3057 3058 3058 3057 3056 3052 3047 3047 3048 3050 3054 3057 3060 3063 3065 3066 3067 3069 3071 3073 3076 3077 3076 3078 3078 3077 3077 3072 3065 3070 3075 3075 3078 3082 3084 3086 3088 3090 3093 3095 3096 3098 3100 3103 3106
3080 3076 3076 3075 3073 3071 3069 3068 3068 3069 3069 3069 3069 3069 3069 3069 3068 3068 3067 3067 3067 3066 3065 3065 3063 3063 3063 3062 3062 3061 3060 3059 3059 3059 3058 3058 3059 3059 3057 3057 3057 3056 3056 3056 3057 3058 3057 3055 3052 3046 3043 3045 3047 3051 3054 3056 3059 3061 3063 3065 3067 3069 3070 3071 3071 3071 3074 3076 3075 3076 3070 3061 3065 3072 3073 3075 3079 3081 3084 3086 3088 3090 3092 3094 3097 3099 3101 3104
3080 3076 3074 3073 3072 3070 3068 3067 3067 3067 3067 3068 3068 3068 3068 3068 3067 3067 3066 3065 3065 3064 3064 3063 3062 3062 3061 3061 3061 3060 3059 3059 3058 3058 3057 3056 3057 3058 3057 3056 3056 3056 3057 3057 3056 3057 3056 3055 3052 3046 3043 3044 3046 3049 3052 3055 3057 3058 3059 3061 3064 3066 3065 3066 3067 3068 3072 3072 3073 3076 3070 3057 3060 3069 3071 3072 3075 3077 3079 3082 3084 3086 3087 3091 3094 3096 3099 3102
3080 3077 3073 3070 3069 3068 3067 3067 3066 3066 3067 3067 3067 3067 3067 3066 3065 3065 3065 3064 3064 3063 3063 3062 3061 3060 3060 3060 3060 3059 3058 3058 3057 3056 3055 3055 3055 3056 3056 3055 3055 3055 3056 3056 3056 3056 3056 3055 3054 3050 3047 3045 3045 3047 3049 3051 3053 3053 3055 3058 3060 3062 3064 3065 3067 3068 3069 3068 3070 3074 3068 3054 3056 3066 3068 3069 3072 3073 3075 3078 3080 3081 3082 3085 3089 3091 3095 3098
3078 3076 3073 3069 3067 3066 3066 3066 3066 3066 3066 3066 3065 3065 3065 3065 3064 3063 3064 3064 3063 3062 3062 3061 3060 3059 3059 3059 3058 3058 3057 3057 3056 3054 3053 3053 3053 3053 3054 3053 3053 3054 3055 3056 3056 3055 3056 3055 3055 3054 3052 3047 3042 3044 3046 3047 3048 3049 3051 3053 3055 3058 3061 3062 3065 3065 3063 3064 3066 3067 3061 3054 3056 3063 3065 3066 3068 3069 3071 3073 3074 3075 3077 3079 3083 3087 3090 3094
3075 3074 3073 3069 3066 3065 3065 3065 3065 3065 3064 3064 3064 3063 3062 3062 3063 3062 3062 3062 3062 3061 3060 3059 3059 3058 3058 3058 3057 3056 3056 3055 3054 3053 3052 3052 3052 3052 3052 3052 3051 3052 3052 3053 3054 3054 3054 3054 3053 3053 3052 3047 3043 3043 3045 3046 3046 3045 3046 3048 3050 3052 3055 3058 3060 3058 3058 3061 3062 3060 3059 3058 3058 3060 3061 3063 3065 3066 3067 3068 3068 3070 3072 3075 3078 3082 3086 3090
3074 3072 3071 3069 3067 3065 3065 3064 3064 3063 3063 3062 3062 3062 3061 3061 3061 3061 3060 3061 3060 3060 3059 3058 3057 3057 3057 3056 3055 3055 3054 3052 3052 3052 3051 3052 3051 3050 3050 3050 3050 3049 3049 3051 3052 3052 3052 3051 3051 3050 3048 3046 3044 3042 3043 3045 3044 3043 3043 3045 3046 3048 3051 3053 3052 3051 3055 3059 3057 3056 3062 3062 3058 3057 3058 3060 3063 3064 3064 3065 3066 3068 3070 3072 3075 3079 3083 3087
3074 3071 3070 3068 3067 3066 3065 3064 3064 3063 3062 3062 3061 3061 3060 3060 3060 3059 3059 3060 3059 3059 3058 3057 3057 3057 3056 3055 3054 3053 3052 3050 3050 3051 3051 3050 3050 3049 3048 3048 3048 3047 3046 3048 3049 3050 3050 3049 3048 3048 3045 3043 3043 3042 3042 3043 3042 3042 3042 3043 3043 3045 3046 3048 3048 3050 3054 3055 3054 3057 3062 3061 3056 3055 3055 3058 3062 3063 3063 3063 3065 3067 3069 3071 3074 3077 3080 3084
3075 3072 3069 3067 3066 3065 3065 3064 3063 3062 3062 3061 3061 3060 3060 3059 3059 3059 3059 3058 3058 3058 3057 3056 3056 3056 3055 3054 3053 3052 3051 3049 3049 3049 3049 3049 3048 3047 3046 3046 3046 3045 3044 3046 3046 3047 3048 3047 3046 3045 3041 3039 3040 3041 3041 3042 3041 3041 3041 3041 3040 3040 3041 3043 3046 3049 3052 3054 3055 3059 3061 3058 3055 3054 3055 3058 3061 3061 3060 3061 3063 3066 3068 3070 3072 3075 3078 3081
3074 3072 3069 3067 3066 3065 3064 3063 3062 3062 3061 3061 3060 3060 3059 3059 3058 3058 3058 3057 3056 3056 3056 3055 3055 3054 3053 3053 3052 3050 3050 3049 3048 3047 3047 3047 3046 3045 3045 3043 3043 3043 3042 3043 3044 3045 3045 3045 3045 3044 3039 3036 3037 3038 3039 3039 3039 3039 3039 3038 3036 3036 3037 3041 3044 3047 3050 3053 3056 3058 3058 3055 3054 3055 3056 3058 3059 3059 3058 3060 3062 3065 3068 3070 3071 3074 3077 3080
3073 3071 3069 3067 3065 3064 3064 3063 3062 3062 3061 3060 3060 3059 3058 3058 3057 3057 3056 3056 3055 3054 3054 3054 3053 3052 3051 3050 3050 3049 3048 3047 3046 3046 3045 3045 3043 3043 3042 3041 3040 3040 3040 3040 3041 3042 3043 3043 3043 3043 3039 3035 3035 3035 3035 3036 3037 3038 3036 3033 3032 3033 3035 3038 3042 3045 3047 3050 3053 3054 3053 3052 3053 3056 3057 3056 3057 3057 3057 3059 3062 3065 3068 3069 3071 3073 3075 3078
3072 3069 3067 3066 3065 3064 3064 3063 3062 3062 3061 3060 3059 3058 3058 3057 3056 3056 3055 3055 3054 3054 3053 3052 3051 3050 3049 3048 3048 3047 3046 3045 3044 3043 3042 3041 3040 3039 3039 3038 3037 3037 3037 3038 3038 3039 3041 3041 3042 3042 3038 3034 3033 3033 3032 3033 3036 3036 3034 3031 3029 3030 3033 3036 3040 3042 3044 3046 3048 3049 3050 3051 3053 3054 3055 3056 3056 3056 3056 3058 3061 3064 3067 3069 3070 3072 3074 3077